{"data":{"norad_id":54795,"epoch":"2026-09-20T12:30:02.268576Z","epoch_age_seconds":91589,"freshness":"FRESH","line1":"1 54795U 22175AP  26263.52085959  .00000041  00000+0  12342-4 0  9999","line2":"2 54795  53.1586 217.6065 0001339  92.0115 268.1041 15.34386098209775","mean_motion":15.34386098,"eccentricity":0.0001339,"inclination_deg":53.1586,"raan_deg":217.6065,"arg_perigee_deg":92.0115,"mean_anomaly_deg":268.1041,"bstar":1.2342e-5,"rev_number":20977,"period_min":93.848608370277,"perigee_km":461.82856615188,"apogee_km":463.6605542337,"semimajor_km":6840.8815601928,"source":"CELESTRAK","updated_at":"2026-09-21T09:00:33.127654Z"}}